カタログに戻る

USA 74

運用中軍事LEO
NORAD 21799·PAYLOAD·🇺🇸 United States

打ち上げ Nov 8, 1991 から Vandenberg Space Force Base

Loading…

次のパス (今後24時間)

TLE

最新Source: Space-Track

元期: Sep 14, 2026, 00:18 UTC

1 21799U 91076C   26257.01293147  .00003338  00000-0  24535-3 0  9999
2 21799  63.2921 264.4268 0881092  74.9859 294.6900 13.62536594115703

AllMySatでUSA 74をリアルタイム追跡

Download on the App Store